Derniers résultats

La Farbusienne

7,5 Km

Trail 18 Km 

 

La Vétumonastérienne

10 Km

Minimes

Poussins

Benjamins

Eveils

Challenge 2022

 LogoChallengeNewsletter

Voir la vidéo de présentation

LogoVideoChallenge

Lire le règlement  2022

La cagnotte "Chronopale 2022" à partager entre tous les coureurs classés sur les 9 épreuves sera de 1300€ (en bons d'achat).
Vous êtes 45 après la 3ème épreuve (soit 29€) 

Date des épreuves 2022
  1.  06/03/22 Semi Marathon de la Terre des 2 Caps à Hervelinghen (Sauf pour les cadets)
  2.  01/05/22 La Ronde du Fort de l'Heurt à Le Portel 10 Km (nature plage et falaise) 
  3.  07/05/22 Les 6 Miles de Pont de Briques
  4.  05/06/22 La Wim'Run à Wimereux 10 Km
  5.  19/06/22 Trail de la Capelle 10 Km
  6.  09/10/22 Les Foulées Bleues à Saint Martin Boulogne 10 Km
  7.  20/11/22 Les Foulées Outreloises à Outreau  10 Km
  8.  27/11/22 Les Foulées de la Sainte Catherine à Menneville 10 Km
  9.  xx/xx/xx Le 10 de Carreau de Desvres 10 Km

 

Nous contacter

Chronopale
59 Rue Léonce TOBO
62200 Boulogne sur mer
06 60 17 22 13
contact@chronopale.fr
www.chronopale.fr

 

5Km

5 KM  LA COULONNOISE du 07/11/21 (Réelle 5.2)
Rang Dossard Nom Prénom Temps Cat Rang Cat Ecart Ecart Cat Club Vitesse Km/h Temps au Km
1 442 FEUTRY Gregory 00:19:58 M0M 1 00:00:00 00:00:00 . 15.626 03:50
2 431 DEFOSSE Remy 00:20:01 ESM 1 00:00:03 00:00:00 . 15.587 03:51
3 456 DUPIC Stephane 00:20:03 M2M 1 00:00:05 00:00:00 . 15.561 03:51
4 492 HENQUEZ CLEMENT 00:20:08 ESM 2 00:00:10 00:00:07 . 15.497 03:52
5 476 LINDA Ducrocq 00:20:34 SEF 1 00:00:36 00:00:00 . 15.170 03:57
6 488 LOISEL Nicolas 00:20:37 CAM 1 00:00:39 00:00:00 BOULOGNE ATHLETIC CLUB 15.133 03:58
7 495 HOURDEQUIN JONATHAN 00:20:49 SEM 1 00:00:51 00:00:00 . 14.988 04:00
8 419 MAOISE Beaulieux 00:21:08 JUM 1 00:01:10 00:00:00 . 14.763 04:04
9 410 VILLAIN Nicolas 00:21:11 M0M 2 00:01:13 00:01:13 . 14.729 04:04
10 449 ROELS Pascal 00:21:12 M2M 2 00:01:14 00:01:09 . 14.717 04:05
11 426 DE POORTER Antoine 00:21:26 SEM 2 00:01:28 00:00:37 . 14.557 04:07
12 478 LAPOTRE Jules 00:21:33 CAM 2 00:01:35 00:00:56 . 14.478 04:09
13 406 HOCHART Arthur 00:21:38 CAM 3 00:01:40 00:01:01 . 14.422 04:10
14 485 LHEUREUX Daniel 00:21:46 M3M 1 00:01:48 00:00:00 SPORT EVASION DES 2 CAPS 14.334 04:11
15 462 DEBOFFLE Germain 00:21:56 SEM 3 00:01:58 00:01:07 . 14.225 04:13
16 490 VANSTRAZEELE MATHIEU 00:21:59 M0M 3 00:02:01 00:02:01 . 14.193 04:14
17 400 DEKNUYDT Laurent 00:22:12 M3M 2 00:02:14 00:00:26 . 14.054 04:16
18 494 DUCHOSSOY VIANNEY 00:22:42 SEM 4 00:02:44 00:01:53 . 13.744 04:22
19 458 BOO Jonathan 00:23:22 SEM 5 00:03:24 00:02:33 . 13.352 04:30
20 422 PIOT Benjamin 00:23:22 M1M 1 00:03:24 00:00:00 . 13.352 04:30
21 454 SUEUR Sylvain 00:23:26 SEM 6 00:03:28 00:02:37 . 13.314 04:30
22 401 FLAHAUT Daniel 00:23:37 M2M 3 00:03:39 00:03:34 . 13.211 04:32
23 479 BOUVOT Cyrille 00:23:56 M1M 2 00:03:58 00:00:34 . 13.036 04:36
24 434 COMYN Margaux 00:24:07 JUF 1 00:04:09 00:00:00 . 12.937 04:38
25 416 CORION Florine 00:24:29 ESF 1 00:04:31 00:00:00 . 12.743 04:42
26 455 CHRETIEN Fabien 00:24:39 M0M 4 00:04:41 00:04:41 . 12.657 04:44
27 411 CRETON Julien 00:24:48 M1M 3 00:04:50 00:01:26 . 12.581 04:46
28 424 CHINELLATO Alexis 00:25:15 M1M 4 00:05:17 00:01:53 . 12.356 04:51
29 413 CONDETTE Frederic 00:25:27 M2M 4 00:05:29 00:05:24 . 12.259 04:54
30 405 DUFOSSE Walter 00:25:32 M0M 5 00:05:34 00:05:34 . 12.219 04:55
31 425 CARTON Adrien 00:25:33 SEM 7 00:05:35 00:04:44 . 12.211 04:55
32 451 VERCOUTRE Theo 00:25:35 CAM 4 00:05:37 00:04:58 . 12.195 04:55
33 491 BRUTIER LAURENT 00:25:47 M3M 3 00:05:49 00:04:01 A.S. MARCK 12.101 04:58
34 464 CHOQUET Pierre 00:26:27 SEM 8 00:06:29 00:05:38 . 11.796 05:05
35 450 VERCOUTRE Vincent 00:26:36 M0M 6 00:06:38 00:06:38 . 11.729 05:07
36 483 DEKNUYDT Loick 00:26:59 SEM 9 00:07:01 00:06:10 . 11.563 05:11
37 436 LEVIS Jerome 00:27:02 M1M 5 00:07:04 00:03:40 . 11.541 05:12
38 459 ROSSI Thomas 00:27:07 SEM 10 00:07:09 00:06:18 . 11.506 05:13
39 452 DELEPIERRE Axel 00:27:36 MIM 1 00:07:38 00:00:00 . 11.304 05:18
40 465 DUQUENOY Mathis 00:27:39 CAM 5 00:07:41 00:07:02 . 11.284 05:19
41 480 BAILLIEU Roseline 00:27:59 M0F 1 00:08:01 00:00:00 . 11.149 05:23
42 489 DOUBLECOURT Sullivan 00:28:13 M0M 7 00:08:15 00:08:15 . 11.057 05:26
43 473 GOUBEL Claire 00:28:14 M1F 1 00:08:16 00:00:00 . 11.051 05:26
44 493 LAVIGNE VICTOIRE 00:28:31 CAF 1 00:08:33 00:00:00 SO CALAIS 10.941 05:29
45 423 DEMILLY Tony 00:28:54 M2M 5 00:08:56 00:08:51 . 10.796 05:33
46 429 CATOIRE Laure 00:30:08 JUF 2 00:10:10 00:06:01 . 10.354 05:48
47 421 VASSEUR Sandy 00:30:17 SEF 2 00:10:19 00:09:43 . 10.303 05:49
48 435 BALLE Laury 00:30:22 M2F 1 00:10:24 00:00:00 . 10.274 05:50
49 482 LEVIS Enea 00:30:24 CAF 2 00:10:26 00:01:53 . 10.263 05:51
50 440 BARA Celine 00:31:30 M0F 2 00:11:32 00:03:31 . 9.905 06:03
51 487 RICOUART VICTOIRE 00:31:55 JUF 3 00:11:57 00:07:48 . 9.775 06:08
52 496 GAUDELOT STEPHANE 00:31:56 M3M 4 00:11:58 00:10:10 . 9.770 06:08
53 430 FAIEULLE Sandrine 00:31:57 M2F 2 00:11:59 00:01:35 . 9.765 06:09
54 407 DEMEESTER Lucie 00:32:55 M0F 3 00:12:57 00:04:56 . 9.478 06:20
55 448 CAPON Mathieu 00:33:21 SEM 11 00:13:23 00:12:32 . 9.355 06:25
56 408 LEPINE Laura 00:33:28 M0F 4 00:13:30 00:05:29 . 9.323 06:26
57 486 DEMILLY Celine 00:33:28 M2F 3 00:13:30 00:03:06 . 9.323 06:26
58 453 DELEPIERRE Estelle 00:33:34 M1F 2 00:13:36 00:05:20 . 9.295 06:27
59 417 DELABY Marion 00:33:58 M0F 5 00:14:00 00:05:59 . 9.185 06:32
60 471 HERON CATHY 00:34:13 M3F 1 00:14:15 00:00:00 . 9.118 06:35
61 443 MICHAUX Clemence 00:34:31 ESF 2 00:14:33 00:10:02 . 9.039 06:38
62 481 IBAR Victoire 00:34:35 M0F 6 00:14:37 00:06:36 . 9.022 06:39
63 418 HENON Marie elodie 00:34:40 M1F 3 00:14:42 00:06:26 . 9.000 06:40
64 414 CARON Adeline 00:34:43 M1F 4 00:14:45 00:06:29 . 8.987 06:41
65 402 FOURCROY Delphine 00:34:48 M2F 4 00:14:50 00:04:26 . 8.966 06:42
66 498 DESMULIE CAROLINE 00:35:05 M2F 5 00:15:07 00:04:43 So calais 8.893 06:45
67 415 GILLET Julien 00:35:07 SEM 12 00:15:09 00:14:18 . 8.885 06:45
68 463 JOLY Eva 00:35:11 SEF 3 00:15:13 00:14:37 . 8.868 06:46
69 468 SENET Pascal 00:35:22 M4M 1 00:15:24 00:00:00 . 8.822 06:48
70 409 SANIEZ Emilie 00:35:59 M0F 7 00:16:01 00:08:00 . 8.671 06:55
71 477 STIVAL Severine 00:35:59 M0F 8 00:16:01 00:08:00 . 8.671 06:55
72 470 LEGER Emilie 00:36:32 M1F 5 00:16:34 00:08:18 . 8.540 07:02
73 484 DEPRE Laure 00:36:37 SEF 4 00:16:39 00:16:03 . 8.521 07:02
74 466 DEWAGHE Marie 00:36:46 M0F 9 00:16:48 00:08:47 . 8.486 07:04
75 457 CHARLEMAGNE Suzie 00:36:46 SEF 5 00:16:48 00:16:12 . 8.486 07:04
76 444 MICHAUX Isabelle 00:36:47 M3F 2 00:16:49 00:02:34 . 8.482 07:04
77 438 DAQUIN Amelie 00:37:14 SEF 6 00:17:16 00:16:40 . 8.380 07:10
78 412 DUCATEZ Aude 00:37:22 M2F 6 00:17:24 00:07:00 . 8.350 07:11
79 441 SBARDELLA Michel 00:37:39 M5M 1 00:17:41 00:00:00 . 8.287 07:14
80 432 CRETON Dominique 00:38:02 M6M 1 00:18:04 00:00:00 . 8.203 07:19
81 427 GOETGELUCK Vanessa 00:38:39 SEF 7 00:18:41 00:18:05 . 8.072 07:26
82 439 SAISON Clotilde 00:38:39 M2F 7 00:18:41 00:08:17 . 8.072 07:26
83 461 ROSSI Frederic 00:38:53 M6M 2 00:18:55 00:00:51 . 8.024 07:29
84 428 CATOIRE Alexia 00:39:06 CAF 3 00:19:08 00:10:35 . 7.980 07:31
85 460 ROSSI Catherine 00:39:55 M5F 1 00:19:57 00:00:00 . 7.816 07:41
86 472 VANDENBROUCKE Therese marie 00:41:04 M3F 3 00:21:06 00:06:51 . 7.597 07:54
87 404 PARISSEAUX Pauline 00:41:08 SEF 8 00:21:10 00:20:34 . 7.585 07:55
88 469 PARISSEAUX Mathieu 00:41:09 SEM 13 00:21:11 00:20:20 . 7.582 07:55
89 475 GUILBERT Sandrine 00:41:25 M0F 10 00:21:27 00:13:26 . 7.533 07:58
90 474 GUILBERT Stephane 00:41:25 M3M 5 00:21:27 00:19:39 . 7.533 07:58
91 433 THOMAS Sandrine 00:42:10 M3F 4 00:22:12 00:07:57 . 7.399 08:07
92 447 DELABIE Terence 00:42:28 POM 1 00:22:30 00:00:00 . 7.347 08:10
93 445 DELABIE Cyril 00:42:29 M1M 6 00:22:31 00:19:07 . 7.344 08:10
94 446 DELABIE Tess 00:42:29 POF 1 00:22:31 00:00:00 . 7.344 08:10
95 437 THOMAS Sebastien 00:42:29 M1M 7 00:22:31 00:19:07 . 7.344 08:10
96 420 DAMIENS Yohann 00:42:29 M1M 8 00:22:31 00:19:07 . 7.344 08:10